Location: Blanot
(47.1713°N, 4.2340°E)
Time: 20:40:03
(UTC+00:00)

Aureole 1 Rocket - Pass Details

Date: 14 July 2020
Orbit: 377 x 1380 km, 73.9° (Epoch: 14 August)

Event Time Altitude Azimuth Distance (km) Brightness Sun altitude
Exits shadow 02:26:03 18° 226° (SW) 1,636 4.6 -12.7°
Maximum altitude 02:29:27 55° 299° (WNW) 945 3.9 -12.3°
Drops below altitude 10° 02:35:31 10° 17° (NNE) 2,721 7.5 -11.7°
Sets 02:38:31 0° 22° (NNE) 3,844 8.7 -11.3°
